[[{"header":{"parameterUnit":"m.s-1","parameterCategory":1,"la1":30.2991,"la2":30.254,"lo1":-89.0895,"lo2":-89.0444,"dy":0.0017,"dx":0.0017,"nx":28,"ny":28,"refTime":"2023-10-31T21:00:00:Z","depth":0,"parameterNumber":2,"parameterNumberName":"U-component_of_WINDS"},"data":[0,0,0,0,0,0,0,0,0,0,0,0,0,0,0,0,0,0,0,0,0,0,0,0,0,0,0,0,0,0,0,0,0,0,0,0,0,0,0,0,0,0,0,0,0,0,0,0,0,0,0,0,0,0,0,0,0,0,-4.2682,-4.2682,0,-4.2712,-4.2712,-4.2713,-4.2545,-4.254,-4.2536,-4.2531,-4.2563,-4.2568,-4.2573,0,0,0,0,0,0,0,0,0,0,0,0,0,-4.2478,-4.2483,-4.2682,-4.2682,-4.2682,-4.2712,-4.2712,-4.2713,-4.2546,-4.254,-4.2534,-4.2529,-4.2561,-4.2567,-4.2574,0,0,0,0,0,0,0,0,0,0,0,0,0,-4.2543,-4.2484,-4.2681,-4.2603,-4.2596,-4.2712,-4.2712,-4.2713,-4.2547,-4.254,-4.2533,-4.2526,-4.2559,-4.2567,-4.2574,-4.2767,0,0,-4.2599,-4.2602,0,0,0,0,0,0,0,0,-4.254,-4.2551,-4.2614,-4.2608,-4.2601,-4.2617,-4.2652,-4.2731,-4.2549,-4.2566,-4.2531,-4.2523,-4.2587,-4.2592,-4.2613,-4.2769,-4.277,-4.2599,-4.2604,-4.2608,-4.261,0,0,0,0,0,0,0,-4.2536,-4.2549,-4.2693,-4.2615,-4.2607,-4.2565,-4.2567,-4.2666,-4.2616,-4.2564,-4.2552,-4.2558,-4.2582,-4.2606,-4.2613,-4.2771,-4.2599,-4.2606,-4.2611,-4.2614,-4.3084,-4.3091,0,0,0,0,0,0,-4.2542,-4.2546,-4.2692,-4.2694,-4.2552,-4.2575,-4.2576,-4.2619,-4.2615,-4.2607,-4.2564,-4.255,-4.2596,-4.2604,-4.2613,-4.2837,-4.2608,-4.2615,-4.262,-4.3076,-4.3085,-4.3094,0,0,0,0,0,0,-4.2538,-4.2556,-4.2691,-4.2617,-4.2631,-4.2586,-4.2636,-4.2624,-4.2648,-4.2615,-4.2605,-4.2598,-4.2591,-4.2602,-4.273,-4.2836,-4.2619,-4.2626,-4.3067,-4.3079,-4.3089,-4.3289,0,0,0,0,0,0,-4.2533,-4.2556,-4.2629,-4.262,-4.2636,-4.2808,-4.2642,-4.263,-4.2662,-4.2644,-4.2644,-4.2637,-4.2586,-4.2719,-4.2738,-4.2843,-4.2632,-4.3057,-4.3072,-4.3086,-4.3272,-4.3306,-4.3334,0,0,0,0,0,-4.2526,-4.2685,-4.2634,-4.2653,-4.2726,-4.2815,-4.2824,-4.2761,-4.2671,-4.2744,-4.2722,-4.2637,-4.2822,-4.2733,-4.2753,-4.2863,-4.305,-4.3068,-4.3085,-4.3259,-4.3299,-4.3333,0,0,0,0,0,0,-4.2709,-4.2682,-4.2626,-4.2786,-4.2804,-4.2786,-4.2877,-4.2807,-4.2851,-4.2832,-4.2753,-4.2754,-4.2895,-4.2891,-4.2793,-4.3048,-4.292,-4.2942,-4.3046,-4.3084,-4.3114,-4.3112,-4.2639,0,0,0,0,0,-4.2767,-4.2842,-4.2814,-4.2958,-4.297,-4.2923,-4.2959,-4.2909,-4.2924,-4.2931,-4.2919,-4.2937,-4.2998,-4.3041,-4.3096,-4.3271,-4.3268,-4.3356,-4.3387,-4.3412,-4.3432,-4.3523,-4.3561,-4.315,-4.315,-4.315,0,0,-4.289,-4.2884,-4.2936,-4.2995,-4.3003,-4.3081,-4.293,-4.3019,-4.3076,-4.2944,-4.3064,-4.3056,-4.307,-4.3222,-4.3289,-4.3224,-4.3545,-4.3434,-4.3455,-4.3461,-4.3545,-4.3584,-4.3618,-4.3162,-4.316,-4.3158,0,0,-4.3152,-4.3157,-4.3276,-4.3287,-4.3301,-4.3267,-4.3296,-4.3289,-4.3279,-4.3397,-4.33,-4.3366,-4.3474,-4.3488,-4.351,-4.3776,-4.3699,-4.3796,-4.3958,-4.4047,-4.4079,-4.4108,-4.4202,-4.4236,-4.3816,-4.3817,-4.3817,0,-4.3303,-4.3417,-4.3347,-4.3442,-4.347,-4.3354,-4.3474,-4.3488,-4.352,-4.3541,-4.3468,-4.36,-4.3602,-4.3755,-4.382,-4.3842,-4.3871,-4.3796,-4.408,-4.4108,-4.4133,-4.4222,-4.4258,-4.3829,-4.3827,-4.3826,-4.3825,0,-4.36,-4.3681,-4.3775,-4.3808,-4.3847,-4.3955,-4.39,-4.3948,-4.3894,-4.3869,-4.399,-4.3988,-4.404,-4.4073,-4.4022,-4.4218,-4.4177,-4.4094,-4.3963,-4.4185,-4.4267,-4.4301,-4.3845,-4.3841,-4.3838,-4.3835,0,0,-4.398,-4.3971,-4.4007,-4.4019,-4.4025,-4.4086,-4.4187,-4.4238,-4.4279,-4.4305,-4.4387,-4.4481,-4.4403,-4.4428,-4.4377,-4.4456,-4.4666,-4.4362,-4.4361,-4.4418,-4.488,-4.4943,-4.4983,-4.4614,-4.4621,-4.4626,-4.4879,0,-4.4235,-4.4408,-4.4348,-4.4524,-4.4597,-4.4487,-4.4575,-4.4588,-4.4567,-4.4625,-4.46,-4.4668,-4.4561,-4.4574,-4.4647,-4.4625,-4.4757,-4.4606,-4.469,-4.4694,-4.4689,-4.5026,-4.5093,-4.5332,-4.491,-4.4916,-4.492,0,-4.4557,-4.4595,-4.4779,-4.477,-4.4798,-4.4879,-4.4919,-4.4977,-4.4988,-4.4967,-4.4994,-4.4927,-4.5025,-4.4895,-4.5028,-4.4927,-4.4957,-4.4952,-4.4959,-4.4964,-4.482,-4.504,-4.5407,-4.5443,-4.497,-4.4966,-4.4962,0,-4.4814,-4.4911,-4.5032,-4.5047,-4.5041,-4.51,-4.51,-4.5104,-4.5138,-4.5173,-4.5194,-4.5241,-4.5267,-4.5304,-4.525,-4.5161,-4.5391,-4.5257,-4.5376,-4.5378,-4.5429,-4.5427,-4.5806,-4.5451,-4.545,-4.545,-4.5449,0,-4.5106,-4.5223,-4.5147,-4.5222,-4.5349,-4.5278,-4.5405,-4.5393,-4.5398,-4.5468,-4.5376,-4.5444,-4.5369,-4.543,-4.5388,-4.5505,-4.5517,-4.5502,-4.549,-4.551,-4.5512,-4.5529,-4.551,-4.5459,-4.5457,-4.5455,-4.5454,0,-4.5414,-4.5369,-4.5494,-4.5478,-4.5476,-4.557,-4.5556,-4.5624,-4.5595,-4.5685,-4.5702,-4.5658,-4.5724,-4.5674,-4.574,-4.5712,-4.5865,-4.583,-4.5862,-4.5851,-4.5972,-4.5961,-4.6375,-4.6425,-4.6039,-4.6043,-4.6046,0,-4.5603,-4.569,-4.5682,-4.5723,-4.5728,-4.5795,-4.5828,-4.5761,-4.5799,-4.5819,-4.5885,-4.5943,-4.5986,-4.6097,-4.6071,-4.612,-4.6084,-4.6226,-4.6091,-4.6109,-4.6085,-4.608,-4.6088,-4.6253,-4.6258,-4.6261,-4.6265,0,-4.5943,-4.5915,-4.5967,-4.6011,-4.6054,-4.6085,-4.6109,-4.6147,-4.6079,-4.6127,-4.6193,-4.6227,-4.6293,-4.6352,-4.6392,-4.6391,-4.6317,-4.6307,-4.6337,-4.6358,-4.6372,-4.6365,-4.5935,-4.6298,-4.6294,-4.6292,-4.629,-4.6289,-4.6196,-4.6267,-4.6273,-4.6333,-4.6344,-4.6368,-4.6431,-4.641,-4.6464,-4.6513,-4.647,-4.655,-4.6557,-4.6603,-4.6612,-4.6672,-4.6614,-4.6658,-4.6669,-4.668,-4.6697,-4.6364,-4.668,-4.6679,-4.6678,-4.6677,-4.6676,0,-4.6529,-4.6527,-4.6583,-4.6619,-4.6667,-4.6592,-4.6615,-4.6659,-4.673,-4.6744,-4.6788,-4.6864,-4.692,-4.6898,-4.6947,-4.7,-4.6967,-4.7015,-4.701,-4.7011,-4.6747,-4.6716,-4.7041,-4.7041,-4.7041,-4.7041,-4.7041,-4.704,-4.6708,-4.6825,-4.6798,-4.6918,-4.6915,-4.6992,-4.7011,-4.7033,-4.7043,-4.7132,-4.7178,-4.7163,-4.7162,-4.721,-4.7258,-4.725,-4.7272,-4.7332,-4.7312,-4.7066,-4.703,-4.6995,-4.6965,-4.7338,-4.7338,-4.757,-4.7572,-4.7574]},{"header":{"parameterUnit":"m.s-1","parameterCategory":1,"la1":30.2991,"la2":30.254,"lo1":-89.0895,"lo2":-89.0444,"dy":0.0017,"dx":0.0017,"nx":28,"ny":28,"refTime":"2023-10-31T21:00:00:Z","depth":0,"parameterNumber":3,"parameterNumberName":"V-component_of_WINDS"},"data":[0,0,0,0,0,0,0,0,0,0,0,0,0,0,0,0,0,0,0,0,0,0,0,0,0,0,0,0,0,0,0,0,0,0,0,0,0,0,0,0,0,0,0,0,0,0,0,0,0,0,0,0,0,0,0,0,0,0,-6.175,-6.1751,0,-6.1835,-6.1836,-6.1837,-6.1744,-6.174,-6.1737,-6.1733,-6.1815,-6.182,-6.1825,0,0,0,0,0,0,0,0,0,0,0,0,0,-6.1499,-6.1504,-6.175,-6.1751,-6.1752,-6.1835,-6.1836,-6.1837,-6.1744,-6.174,-6.1736,-6.1732,-6.1813,-6.1819,-6.1826,0,0,0,0,0,0,0,0,0,0,0,0,0,-6.1599,-6.1506,-6.175,-6.1716,-6.1714,-6.1834,-6.1836,-6.1837,-6.1745,-6.174,-6.1735,-6.173,-6.1811,-6.1819,-6.1827,-6.1983,0,0,-6.1852,-6.1855,0,0,0,0,0,0,0,0,-6.1593,-6.1608,-6.172,-6.1718,-6.1716,-6.1773,-6.1777,-6.1886,-6.1747,-6.1733,-6.1733,-6.1727,-6.1805,-6.1813,-6.184,-6.1987,-6.199,-6.1852,-6.1857,-6.1861,-6.1863,0,0,0,0,0,0,0,-6.1586,-6.1604,-6.1783,-6.1721,-6.1719,-6.1694,-6.1702,-6.1797,-6.1797,-6.1734,-6.1727,-6.1739,-6.1803,-6.1833,-6.1842,-6.1991,-6.1852,-6.1859,-6.1864,-6.1868,-6.2266,-6.2271,0,0,0,0,0,0,-6.1584,-6.1599,-6.178,-6.1786,-6.1641,-6.1703,-6.1712,-6.176,-6.1796,-6.1797,-6.1743,-6.1734,-6.1821,-6.1832,-6.1844,-6.2027,-6.1861,-6.1868,-6.1873,-6.226,-6.2267,-6.2273,0,0,0,0,0,0,-6.1579,-6.1601,-6.1777,-6.169,-6.1711,-6.1713,-6.1768,-6.1765,-6.1795,-6.1803,-6.1802,-6.1775,-6.1818,-6.1833,-6.1948,-6.2028,-6.1872,-6.1879,-6.2253,-6.2262,-6.227,-6.2395,0,0,0,0,0,0,-6.1572,-6.16,-6.1662,-6.1693,-6.1716,-6.1883,-6.1773,-6.177,-6.181,-6.1799,-6.1832,-6.1833,-6.1815,-6.1937,-6.1957,-6.2037,-6.1886,-6.2246,-6.2257,-6.2267,-6.2384,-6.2407,-6.2427,0,0,0,0,0,-6.1564,-6.1693,-6.1665,-6.1688,-6.1793,-6.1888,-6.1901,-6.1879,-6.1817,-6.1877,-6.1882,-6.1832,-6.2017,-6.195,-6.1971,-6.2055,-6.2241,-6.2254,-6.2266,-6.2374,-6.2402,-6.2426,0,0,0,0,0,0,-6.167,-6.1696,-6.1666,-6.181,-6.1847,-6.1872,-6.1947,-6.191,-6.1965,-6.1952,-6.192,-6.1929,-6.2051,-6.2065,-6.1989,-6.2206,-6.2118,-6.2136,-6.2193,-6.222,-6.224,-6.2234,-6.1893,0,0,0,0,0,-6.171,-6.1787,-6.1805,-6.193,-6.1951,-6.1946,-6.1987,-6.1966,-6.2003,-6.2018,-6.2032,-6.2068,-6.2133,-6.2177,-6.2239,-6.2385,-6.2389,-6.2453,-6.2475,-6.2492,-6.2507,-6.2582,-6.261,-6.2315,-6.2315,-6.2315,0,0,-6.1794,-6.1818,-6.1868,-6.1952,-6.1979,-6.2056,-6.196,-6.2047,-6.2103,-6.2031,-6.2141,-6.2152,-6.2189,-6.2321,-6.238,-6.2336,-6.259,-6.2508,-6.2522,-6.2528,-6.2598,-6.2626,-6.2651,-6.2324,-6.2322,-6.2321,0,0,-6.1985,-6.2013,-6.2118,-6.2147,-6.2189,-6.2185,-6.221,-6.2241,-6.2246,-6.2356,-6.2302,-6.2368,-6.2483,-6.2511,-6.254,-6.274,-6.2695,-6.2761,-6.2872,-6.2945,-6.2969,-6.2989,-6.3058,-6.3083,-6.2776,-6.2776,-6.2777,0,-6.2083,-6.2201,-6.2177,-6.2267,-6.2304,-6.2243,-6.2348,-6.2376,-6.2436,-6.2461,-6.2412,-6.2553,-6.2574,-6.271,-6.2758,-6.2785,-6.281,-6.2756,-6.2968,-6.2988,-6.3006,-6.3071,-6.3098,-6.2784,-6.2783,-6.2782,-6.2782,0,-6.2317,-6.2399,-6.2479,-6.2539,-6.2584,-6.2682,-6.267,-6.2718,-6.2694,-6.2694,-6.2805,-6.2828,-6.2892,-6.2923,-6.2899,-6.3054,-6.3025,-6.2973,-6.2884,-6.3043,-6.3103,-6.3128,-6.2795,-6.2792,-6.279,-6.2788,0,0,-6.2578,-6.2623,-6.2653,-6.2678,-6.2719,-6.278,-6.2873,-6.2936,-6.2977,-6.302,-6.3094,-6.3192,-6.3143,-6.3176,-6.3155,-6.322,-6.3373,-6.3159,-6.3159,-6.3196,-6.3542,-6.358,-6.361,-6.3344,-6.3349,-6.3353,-6.3538,0,-6.2769,-6.2932,-6.2912,-6.3066,-6.3139,-6.3082,-6.3162,-6.3194,-6.3196,-6.3256,-6.3257,-6.3326,-6.3258,-6.3277,-6.3339,-6.3342,-6.3442,-6.3328,-6.341,-6.3414,-6.3401,-6.3642,-6.3683,-6.3856,-6.3562,-6.3566,-6.3569,0,-6.3013,-6.3065,-6.3227,-6.3255,-6.3284,-6.3357,-6.3412,-6.3472,-6.3506,-6.3502,-6.3539,-6.3506,-6.3595,-6.3506,-6.3627,-6.355,-6.3582,-6.3588,-6.3594,-6.3599,-6.35,-6.3651,-6.3912,-6.3937,-6.3606,-6.3603,-6.36,0,-6.3184,-6.3294,-6.3405,-6.3429,-6.3464,-6.3516,-6.3533,-6.3562,-6.36,-6.3648,-6.3672,-6.3729,-6.3759,-6.3803,-6.3784,-6.3722,-6.3908,-6.3818,-6.3905,-6.3905,-6.3945,-6.3943,-6.4213,-6.397,-6.397,-6.3969,-6.3969,0,-6.3397,-6.3498,-6.3482,-6.355,-6.366,-6.3635,-6.3743,-6.3753,-6.3779,-6.3845,-6.3798,-6.3861,-6.3834,-6.3894,-6.388,-6.3981,-6.3996,-6.3993,-6.3988,-6.3996,-6.3996,-6.4015,-6.4002,-6.3976,-6.3975,-6.3973,-6.3972,0,-6.3606,-6.36,-6.3716,-6.374,-6.3748,-6.3828,-6.3847,-6.3909,-6.3907,-6.3991,-6.4009,-6.4006,-6.4074,-6.406,-6.4135,-6.4125,-6.4251,-6.4232,-6.424,-6.4235,-6.4322,-6.4313,-6.4612,-6.4648,-6.4384,-6.4387,-6.4389,0,-6.3742,-6.3818,-6.385,-6.3892,-6.3913,-6.3981,-6.402,-6.3998,-6.404,-6.4083,-6.4139,-6.4203,-6.4253,-6.4364,-6.4367,-6.4423,-6.4403,-6.4504,-6.4411,-6.4416,-6.4401,-6.4396,-6.4402,-6.4522,-6.4525,-6.4527,-6.4529,0,-6.3983,-6.3975,-6.4035,-6.4093,-6.4141,-6.4185,-6.4224,-6.426,-6.424,-6.429,-6.4359,-6.4398,-6.4474,-6.4538,-6.4589,-6.4603,-6.4562,-6.4559,-6.4581,-6.459,-6.459,-6.4588,-6.4288,-6.4551,-6.4549,-6.4548,-6.4546,-6.4545,-6.4157,-6.4221,-6.4253,-6.432,-6.4347,-6.4385,-6.4443,-6.4449,-6.4507,-6.4568,-6.4551,-6.4629,-6.4658,-6.4724,-6.4744,-6.4803,-6.4765,-6.4798,-6.4806,-6.4814,-6.4824,-6.4583,-6.4812,-6.4812,-6.4811,-6.4811,-6.481,0,-6.4393,-6.4411,-6.4473,-6.4529,-6.4581,-6.454,-6.458,-6.4625,-6.4696,-6.4727,-6.4777,-6.4856,-6.4916,-6.4923,-6.498,-6.5025,-6.5008,-6.5041,-6.5036,-6.5039,-6.4856,-6.483,-6.5054,-6.5054,-6.5054,-6.5054,-6.5054,-6.5054,-6.4522,-6.4627,-6.4623,-6.474,-6.4756,-6.4834,-6.486,-6.4893,-6.4918,-6.5008,-6.5059,-6.5063,-6.5084,-6.5141,-6.5194,-6.5194,-6.5216,-6.5256,-6.5248,-6.5077,-6.5052,-6.5029,-6.5004,-6.5261,-6.5262,-6.5426,-6.5428,-6.5429]}]]